Location: *
(37.9500°N, 27.3666°E)
Time: 23:27:03
(UTC+00:00)

Cosmos 614 Rocket - Pass Details

Date: 30 May 2022
Orbit: 732 x 764 km, 74.1° (Epoch: 01 July)

Event Time Altitude Azimuth Distance (km) Brightness Sun altitude
Rises 22:24:01 0° 358° (N) 3,220 8.4 -30.1°
Reaches altitude 10° 22:27:18 10° 20° (NNE) 2,296 7.3 -30.0°
Maximum altitude 22:30:33 16° 59° (ENE) 1,885 6.4 -29.9°
Enters shadow 22:33:00 12° 90° (E) 2,130 6.3 -29.9°
